{"data":{"norad_id":65421,"intl_designator":"2025-192T","name":"STARLINK-35146","alt_names":[],"object_type":"PAYLOAD","status":"ACTIVE","operator":null,"country":"US","launch_date":"2025-08-31","launch_site_code":"AFETR","launch_vehicle":null,"mission":null,"orbit_class":"UNKNOWN","rcs_meters":null,"size_class":null,"mass_kg":null,"dimensions":null,"purposes":["comms"],"wikipedia_slug":null,"has_3d_model":false,"image_url":null,"decayed_at":null,"tle_current":{"epoch":"2026-09-20T21:37:27.638112Z","epoch_age_seconds":80311,"freshness":"FRESH","line1":"1 65421U 25192T   26263.90101433  .00013883  00000+0  45809-3 0  9998","line2":"2 65421  53.1583  44.0736 0001083  78.6611 281.4513 15.31714825 59285","mean_motion":15.31714825,"eccentricity":0.0001083,"inclination_deg":53.1583,"raan_deg":44.0736,"arg_perigee_deg":78.6611,"mean_anomaly_deg":281.4513,"bstar":0.00045809,"rev_number":5928,"period_min":94.012278036155,"perigee_km":469.95407443595,"apogee_km":471.43753162108,"semimajor_km":6848.8328030285,"source":"CELESTRAK","updated_at":"2026-09-21T09:00:35.605714Z"}}}